Weather History for Lacon, IL

Change the Weather History Date:

Monday, January 27, 2014

  Actual Average (KPIA) Record (KPIA)
Temperature  
Mean Temperature 0 °F 25 °F  
Max Temperature 3 °F 33 °F 63 °F (1944)
Min Temperature -4 °F 17 °F -14 °F (1955)
Degree Days  
Heating Degree Days 66 40  
Month to date heating degree days 1080  
Since 1 July heating degree days 3358  
Cooling Degree Days 0 0  
Month to date cooling degree days 0  
Year to date cooling degree days 0  
Moisture  
Dew Point -10 °F    
Average Humidity 64    
Maximum Humidity 75    
Minimum Humidity 54    
Precipitation  
Precipitation 0.00 in 0.05 in 0.85 in (1949)
Month to date precipitation 1.57  
Year to date precipitation 1.57  
Snow  
Snow 0.00 in 0.20 in 3.50 in (1972)
Month to date snowfall 6.0  
Since 1 July snowfall 14.2  
Snow Depth -    
Sea Level Pressure  
Sea Level Pressure 30.33 in    
Wind  
Wind Speed 15 mph (NW)    
Max Wind Speed 22 mph    
Max Gust Speed 34 mph    
Visibility 10 miles    
Events      
T = Trace of Precipitation, MM = Missing Value Source: NWS Daily Summary

Daily Weather History Graph

Daily Weather History Graph

Search for Another Location

Airport:

Trip Planner

Search our weather history database for the weather conditions in past years. The results will help you decide how hot, cold, wet, or windy it might be!

Date:

Astronomy

Jan. 27, 2014 Rise Set
Actual Time 7:12 AM CST 5:08 PM CST
Civil Twilight 6:43 AM CST 5:37 PM CST
Nautical Twilight 6:10 AM CST 6:11 PM CST
Astronomical Twilight 5:37 AM CST 6:43 PM CST
Moon 3:54 AM CST (1/27) 1:54 PM CST (1/27)
Length of Visible Light 10h 54m
Length of Day
9h 55m
Waning Crescent, 14% of the Moon is Illuminated
Jan 27
Waning Crescent
Jan 30
New
Feb 6
First Quarter
Feb 14
Full
Feb 22
Last Quarter

Hourly Weather History & Observations

Time (CST) Temp. Windchill Dew Point Humidity Pressure Visibility Wind Dir Wind Speed Gust Speed Precip Events Conditions
12:15 AM 3.6 °F -17.6 °F -6.2 °F 64% 30.03 in 10.0 mi WNW 20.7 mph 33.4 mph N/A   Scattered Clouds
12:35 AM 3.2 °F -18.1 °F -6.5 °F 64% 30.04 in 10.0 mi WNW 20.7 mph 31.1 mph N/A   Clear
12:55 AM 2.8 °F -17.0 °F -4.7 °F 71% 30.05 in 10.0 mi WNW 17.3 mph 31.1 mph N/A   Scattered Clouds
1:15 AM 2.7 °F -17.8 °F -4.5 °F 72% 30.06 in 7.0 mi WNW 18.4 mph 29.9 mph N/A   Mostly Cloudy
1:35 AM 2.3 °F -19.8 °F -4.7 °F 72% 30.07 in 5.0 mi NW 21.9 mph 31.1 mph N/A   Haze
1:55 AM 2.1 °F -19.0 °F -7.1 °F 66% 30.09 in 10.0 mi NW 19.6 mph 26.5 mph N/A   Scattered Clouds
2:15 AM 2.1 °F -19.5 °F -7.4 °F 64% 30.11 in 10.0 mi WNW 20.7 mph 34.5 mph N/A   Scattered Clouds
2:35 AM 1.4 °F -18.8 °F -8.0 °F 65% 30.12 in 10.0 mi WNW 17.3 mph 29.9 mph N/A   Clear
2:55 AM 1.2 °F -19.1 °F -7.6 °F 67% 30.13 in 10.0 mi WNW 17.3 mph 24.2 mph N/A   Clear
3:15 AM 0.9 °F -19.5 °F -7.6 °F 68% 30.15 in 10.0 mi WNW 17.3 mph 23.0 mph N/A   Scattered Clouds
3:35 AM 0.3 °F -20.2 °F -7.8 °F 69% 30.16 in 10.0 mi WNW 17.3 mph 24.2 mph N/A   Scattered Clouds
3:55 AM 0.1 °F -21.0 °F -8.5 °F 67% 30.17 in 10.0 mi NW 18.4 mph 24.2 mph N/A   Clear
4:15 AM -0.4 °F -20.5 °F -9.4 °F 66% 30.18 in 10.0 mi NW 16.1 mph 24.2 mph N/A   Clear
4:35 AM -0.4 °F -16.7 °F -9.4 °F 66% 30.20 in 10.0 mi NW 10.4 mph 19.6 mph N/A   Clear
4:55 AM -0.6 °F -18.6 °F -9.4 °F 66% 30.21 in 10.0 mi NW 12.7 mph 26.5 mph N/A   Clear
5:15 AM -0.8 °F -18.9 °F -9.6 °F 66% 30.21 in 10.0 mi WNW 12.7 mph 23.0 mph N/A   Clear
5:35 AM -0.8 °F -18.9 °F -9.4 °F 67% 30.22 in 10.0 mi WNW 12.7 mph 20.7 mph N/A   Clear
5:55 AM -0.9 °F -19.1 °F -8.9 °F 69% 30.23 in 10.0 mi WNW 12.7 mph 17.3 mph N/A   Clear
6:15 AM -0.9 °F -21.9 °F -9.8 °F 66% 30.24 in 10.0 mi NW 17.3 mph 28.8 mph N/A   Clear
6:35 AM -1.5 °F -19.8 °F -9.4 °F 69% 30.25 in 10.0 mi WNW 12.7 mph 19.6 mph N/A   Clear
6:55 AM -1.3 °F -17.8 °F -7.6 °F 75% 30.26 in 7.0 mi WNW 10.4 mph 17.3 mph N/A   Mostly Cloudy
7:15 AM -1.8 °F -19.4 °F -11.4 °F 64% 30.27 in 10.0 mi WNW 11.5 mph 21.9 mph N/A   Scattered Clouds
7:35 AM -1.8 °F -19.4 °F -9.4 °F 70% 30.28 in 7.0 mi WNW 11.5 mph - N/A   Mostly Cloudy
7:55 AM -1.3 °F -18.7 °F -9.4 °F 69% 30.29 in 10.0 mi WNW 11.5 mph 17.3 mph N/A   Overcast
8:15 AM -1.3 °F -21.0 °F -8.1 °F 73% 30.30 in 5.0 mi WNW 15.0 mph 21.9 mph N/A   Haze
8:35 AM -1.3 °F -21.0 °F -11.2 °F 63% 30.31 in 10.0 mi WNW 15.0 mph 20.7 mph N/A   Mostly Cloudy
8:55 AM -1.3 °F -22.9 °F -11.7 °F 61% 30.31 in 10.0 mi NW 18.4 mph 26.5 mph N/A   Scattered Clouds
9:15 AM -0.9 °F -19.1 °F -11.6 °F 61% 30.31 in 10.0 mi WNW 12.7 mph 24.2 mph N/A   Clear
9:35 AM -0.9 °F -20.6 °F -10.1 °F 65% 30.33 in 10.0 mi NW 15.0 mph 20.7 mph N/A   Scattered Clouds
9:55 AM -1.1 °F -21.5 °F -11.7 °F 61% 30.34 in 10.0 mi NW 16.1 mph 25.3 mph N/A   Scattered Clouds
10:15 AM -0.8 °F -21.6 °F -11.7 °F 60% 30.35 in 10.0 mi NW 17.3 mph 23.0 mph N/A   Clear
10:35 AM -0.2 °F -18.9 °F -11.0 °F 60% 30.36 in 10.0 mi WNW 13.8 mph 25.3 mph N/A   Clear
10:55 AM 0.7 °F -17.8 °F -9.8 °F 62% 30.35 in 10.0 mi WNW 13.8 mph 24.2 mph N/A   Clear
11:15 AM 0.9 °F -19.5 °F -9.2 °F 63% 30.36 in 10.0 mi NW 17.3 mph 23.0 mph N/A   Clear
11:35 AM 1.0 °F -16.6 °F -9.9 °F 60% 30.36 in 10.0 mi WNW 12.7 mph 20.7 mph N/A   Clear
11:55 AM 1.8 °F -16.4 °F -8.7 °F 62% 30.36 in 10.0 mi WNW 13.8 mph 25.3 mph N/A   Scattered Clouds
12:15 PM 2.3 °F -17.7 °F -8.3 °F 61% 30.35 in 10.0 mi WNW 17.3 mph 23.0 mph N/A   Scattered Clouds
12:35 PM 1.8 °F -17.8 °F -7.2 °F 66% 30.36 in 5.0 mi WNW 16.1 mph 24.2 mph N/A   Haze
12:55 PM 1.8 °F -18.4 °F -10.1 °F 58% 30.36 in 10.0 mi WNW 17.3 mph 26.5 mph N/A   Scattered Clouds
1:15 PM 1.4 °F -18.2 °F -9.9 °F 59% 30.36 in 10.0 mi NW 16.1 mph 19.6 mph N/A   Clear
1:35 PM 1.8 °F -18.4 °F -9.4 °F 60% 30.36 in 10.0 mi WNW 17.3 mph 21.9 mph N/A   Scattered Clouds
1:55 PM 1.2 °F -18.4 °F -10.1 °F 59% 30.37 in 10.0 mi WNW 16.1 mph 25.3 mph N/A   Scattered Clouds
2:15 PM 0.7 °F -19.8 °F -11.6 °F 56% 30.37 in 10.0 mi NW 17.3 mph 28.8 mph N/A   Clear
2:35 PM 0.7 °F -17.8 °F -11.0 °F 58% 30.38 in 10.0 mi NW 13.8 mph 23.0 mph N/A   Clear
2:55 PM 0.9 °F -17.6 °F -11.2 °F 57% 30.39 in 10.0 mi NW 13.8 mph 23.0 mph N/A   Clear
3:15 PM 0.9 °F -17.6 °F -11.4 °F 56% 30.40 in 10.0 mi NW 13.8 mph 24.2 mph N/A   Clear
3:35 PM 0.5 °F -18.0 °F -11.4 °F 57% 30.41 in 10.0 mi NW 13.8 mph 20.7 mph N/A   Clear
3:55 PM 0.5 °F -19.4 °F -12.3 °F 55% 30.41 in 10.0 mi NW 16.1 mph 25.3 mph N/A   Clear
4:15 PM 0.1 °F -16.0 °F -12.8 °F 54% 30.42 in 10.0 mi NW 10.4 mph 21.9 mph N/A   Clear
4:35 PM -0.4 °F -19.2 °F -13.5 °F 54% 30.43 in 10.0 mi NW 13.8 mph 20.7 mph N/A   Clear
4:55 PM -0.8 °F -18.9 °F -13.2 °F 56% 30.43 in 10.0 mi NW 12.7 mph 18.4 mph N/A   Clear
5:15 PM -1.3 °F -18.7 °F -12.8 °F 58% 30.44 in 10.0 mi NW 11.5 mph 16.1 mph N/A   Clear
5:35 PM -1.7 °F -16.2 °F -13.0 °F 59% 30.44 in 10.0 mi NW 8.1 mph - N/A   Unknown
5:55 PM -1.8 °F -17.5 °F -13.0 °F 59% 30.45 in 10.0 mi NW 9.2 mph - N/A   Clear
6:15 PM -2.2 °F -12.5 °F -13.0 °F 60% 30.45 in 10.0 mi NW 4.6 mph - N/A   Clear
6:35 PM -2.4 °F -10.6 °F -12.6 °F 62% 30.45 in 10.0 mi NW 3.5 mph - N/A   Clear
6:55 PM -2.6 °F -14.6 °F -12.5 °F 63% 30.46 in 10.0 mi NNW 5.8 mph - N/A   Clear
7:15 PM -2.9 °F -13.3 °F -12.3 °F 64% 30.46 in 10.0 mi NW 4.6 mph - N/A   Clear
7:35 PM -3.3 °F -13.7 °F -12.3 °F 65% 30.46 in 10.0 mi NW 4.6 mph - N/A   Clear
7:55 PM -3.5 °F -15.7 °F -12.3 °F 66% 30.46 in 10.0 mi NW 5.8 mph - N/A   Clear
8:15 PM -3.3 °F -20.3 °F -12.6 °F 64% 30.47 in 10.0 mi NW 10.4 mph - N/A   Clear
8:35 PM -3.3 °F -16.9 °F -13.4 °F 62% 30.47 in 10.0 mi WNW 6.9 mph - N/A   Clear
8:55 PM -3.8 °F -17.5 °F -13.4 °F 64% 30.48 in 10.0 mi WNW 6.9 mph - N/A   Clear
9:35 PM -4.0 °F -16.3 °F -13.2 °F 65% 30.49 in 10.0 mi West 5.8 mph - N/A   Clear
9:55 PM -4.4 °F -15.0 °F -13.2 °F 66% 30.49 in 10.0 mi WNW 4.6 mph - N/A   Clear
10:15 PM -4.4 °F -18.2 °F -13.2 °F 66% 30.49 in 10.0 mi WNW 6.9 mph - N/A   Clear
10:35 PM -4.5 °F -15.2 °F -13.5 °F 65% 30.49 in 10.0 mi WNW 4.6 mph - N/A   Clear
10:55 PM -4.2 °F -16.5 °F -13.5 °F 64% 30.49 in 10.0 mi NW 5.8 mph - N/A   Clear
11:15 PM -4.4 °F -18.2 °F -13.2 °F 66% 30.49 in 10.0 mi NW 6.9 mph - N/A   Clear
11:35 PM -4.7 °F -15.4 °F -13.2 °F 67% 30.48 in 10.0 mi NW 4.6 mph - N/A   Clear
11:55 PM -4.9 °F -17.4 °F -13.2 °F 68% 30.49 in 10.0 mi WNW 5.8 mph - N/A   Clear